RYR1304 LEPA-LEZL

Flight info

Callsign RYR1304
Flight time 1h 26m
Altitude 37000
Route BAVER DCT GERVU DCT ALT DCT RESTU DCT TOSGA DCT ROLAS DCT UNTOS DCT RIXUR DCT MGA M744 MAR
Aircraft B738/M-SDE2E3FGHIRWXY/LB2

Departure

Time 2026-05-03 21:00
Airport Palma de Mallorca Airport (LEPA)

Arrival

Time 2026-05-03 22:26
Airport Seville Airport (LEZL)
Time Latitude Longitude Altitude Speed Heading
2026-05-03 20:24 39.54531 2.73274 39 ft 0 kts 347°
2026-05-03 20:46 39.54528 2.73275 39 ft 2 kts 347°
2026-05-03 20:47 39.54514 2.73279 39 ft 2 kts 347°
2026-05-03 20:47 39.54499 2.73284 39 ft 2 kts 347°
2026-05-03 20:47 39.54485 2.73288 39 ft 1 kts
2026-05-03 20:47 39.54474 2.73282 39 ft 0 kts 55°
2026-05-03 20:48 39.54471 2.73274 39 ft 0 kts 65°
2026-05-03 20:48 39.54469 2.73270 39 ft 0 kts 60°
2026-05-03 20:55 39.54475 2.73283 38 ft 3 kts 60°
2026-05-03 20:55 39.54492 2.73323 39 ft 7 kts 60°
2026-05-03 20:55 39.54527 2.73395 40 ft 11 kts 57°
2026-05-03 20:56 39.54580 2.73506 38 ft 16 kts 59°
2026-05-03 20:56 39.54602 2.73622 36 ft 13 kts 139°
2026-05-03 20:56 39.54534 2.73587 38 ft 10 kts 236°
2026-05-03 20:56 39.54493 2.73502 40 ft 13 kts 238°
2026-05-03 20:57 39.54430 2.73365 40 ft 19 kts 241°
2026-05-03 20:57 39.54359 2.73219 38 ft 16 kts 238°
2026-05-03 20:57 39.54311 2.73120 38 ft 12 kts 240°
2026-05-03 20:57 39.54267 2.73026 37 ft 12 kts 238°
2026-05-03 20:58 39.54216 2.72935 36 ft 12 kts 212°
2026-05-03 20:58 39.54157 2.72987 36 ft 11 kts 98°
2026-05-03 20:58 39.54151 2.73087 37 ft 12 kts 96°
2026-05-03 20:58 39.54153 2.73235 37 ft 19 kts 64°
2026-05-03 20:59 39.54249 2.73432 40 ft 45 kts 59°
2026-05-03 20:59 39.54539 2.74040 39 ft 112 kts 58°
2026-05-03 20:59 39.55046 2.75123 45 ft 163 kts 58°
2026-05-03 20:59 39.55662 2.76405 573 ft 172 kts 59°
2026-05-03 21:00 39.56273 2.77687 1323 ft 168 kts 63°
2026-05-03 21:00 39.56470 2.78127 1500 ft 172 kts 63°
2026-05-03 21:00 39.57540 2.80540 2384 ft 198 kts 62°
2026-05-03 21:00 39.58263 2.82112 2955 ft 212 kts 62°
2026-05-03 21:01 39.59038 2.83784 3524 ft 227 kts 61°
2026-05-03 21:01 39.59870 2.85588 4263 ft 238 kts 61°
2026-05-03 21:01 39.60707 2.87402 5158 ft 240 kts 61°
2026-05-03 21:01 39.61556 2.89247 5994 ft 244 kts 60°
2026-05-03 21:02 39.62435 2.91132 6753 ft 251 kts 56°
2026-05-03 21:02 39.63719 2.92648 7452 ft 256 kts 21°
2026-05-03 21:02 39.65431 2.92980 8189 ft 250 kts 343°
2026-05-03 21:02 39.66902 2.91994 8958 ft 237 kts 305°
2026-05-03 21:03 39.67561 2.90148 9746 ft 224 kts 270°
2026-05-03 21:03 39.67558 2.88180 10555 ft 221 kts 266°
2026-05-03 21:03 39.67611 2.86193 11322 ft 225 kts 271°
2026-05-03 21:03 39.67812 2.84172 12032 ft 230 kts 275°
2026-05-03 21:04 39.68066 2.82141 12810 ft 230 kts 274°
2026-05-03 21:04 39.68279 2.80113 13484 ft 232 kts 268°
2026-05-03 21:04 39.67976 2.78050 13918 ft 241 kts 243°
2026-05-03 21:04 39.67095 2.76148 14384 ft 254 kts 238°
2026-05-03 21:05 39.66156 2.74125 14817 ft 268 kts 241°
2026-05-03 21:05 39.65290 2.71959 15267 ft 280 kts 244°
2026-05-03 21:05 39.64426 2.69609 15646 ft 296 kts 245°
2026-05-03 21:05 39.63533 2.67125 16038 ft 311 kts 245°
2026-05-03 21:06 39.62602 2.64548 16436 ft 324 kts 244°
2026-05-03 21:06 39.61626 2.61867 16870 ft 337 kts 244°
2026-05-03 21:06 39.60619 2.59113 17560 ft 341 kts 244°
2026-05-03 21:06 39.59605 2.56353 18251 ft 344 kts 244°
2026-05-03 21:07 39.58576 2.53555 18916 ft 348 kts 244°
2026-05-03 21:07 39.57526 2.50705 19540 ft 353 kts 244°
2026-05-03 21:07 39.56472 2.47849 20160 ft 357 kts 244°
2026-05-03 21:07 39.55403 2.44952 20776 ft 360 kts 244°
2026-05-03 21:08 39.54313 2.42000 21391 ft 364 kts 244°
2026-05-03 21:08 39.53226 2.39061 22040 ft 366 kts 245°
2026-05-03 21:08 39.52129 2.36096 22585 ft 370 kts 245°
2026-05-03 21:08 39.51006 2.33063 23119 ft 374 kts 244°
2026-05-03 21:09 39.49882 2.30031 23682 ft 378 kts 244°
2026-05-03 21:09 39.48740 2.26952 24262 ft 380 kts 244°
2026-05-03 21:09 39.47607 2.23901 24849 ft 382 kts 244°
2026-05-03 21:09 39.46454 2.20798 25407 ft 385 kts 244°
2026-05-03 21:10 39.45296 2.17687 25891 ft 388 kts 244°
2026-05-03 21:10 39.44123 2.14537 26462 ft 390 kts 244°
2026-05-03 21:10 39.42942 2.11371 26964 ft 392 kts 244°
2026-05-03 21:10 39.41746 2.08167 27388 ft 397 kts 244°
2026-05-03 21:11 39.40551 2.04968 27900 ft 398 kts 244°
2026-05-03 21:11 39.39330 2.01701 28410 ft 400 kts 244°
2026-05-03 21:11 39.38118 1.98465 28790 ft 404 kts 244°
2026-05-03 21:11 39.36892 1.95194 29354 ft 403 kts 245°
2026-05-03 21:12 39.35670 1.91939 29679 ft 408 kts 244°
2026-05-03 21:12 39.34423 1.88620 30111 ft 411 kts 244°
2026-05-03 21:12 39.33190 1.85344 30581 ft 411 kts 245°
2026-05-03 21:12 39.31934 1.82008 31086 ft 411 kts 245°
2026-05-03 21:13 39.30697 1.78729 31618 ft 410 kts 245°
2026-05-03 21:13 39.29451 1.75429 32262 ft 405 kts 245°
2026-05-03 21:13 39.28228 1.72196 32997 ft 398 kts 245°
2026-05-03 21:13 39.27035 1.69044 33696 ft 391 kts 246°
2026-05-03 21:14 39.25854 1.65926 34320 ft 385 kts 246°
2026-05-03 21:14 39.24694 1.62864 34737 ft 383 kts 246°
2026-05-03 21:14 39.23531 1.59791 35032 ft 383 kts 246°
2026-05-03 21:14 39.22372 1.56733 35326 ft 383 kts 246°
2026-05-03 21:15 39.21199 1.53642 35627 ft 383 kts 246°
2026-05-03 21:15 39.20034 1.50575 35971 ft 381 kts 246°
2026-05-03 21:15 39.18866 1.47509 36354 ft 380 kts 246°
2026-05-03 21:15 39.17722 1.44508 36681 ft 380 kts 247°
2026-05-03 21:16 39.16543 1.41418 37010 ft 380 kts 246°
2026-05-03 21:16 39.15380 1.38372 37000 ft 381 kts 246°
2026-05-03 21:16 39.13057 1.32304 37002 ft 376 kts 246°
2026-05-03 21:17 39.11130 1.27280 37009 ft 377 kts 246°
2026-05-03 21:17 39.08429 1.20246 36999 ft 376 kts 246°
2026-05-03 21:18 39.06117 1.14245 37006 ft 375 kts 246°
2026-05-03 21:18 39.03801 1.08234 37005 ft 377 kts 246°
2026-05-03 21:19 39.01479 1.02227 37003 ft 375 kts 246°
2026-05-03 21:19 38.99160 0.96238 37012 ft 376 kts 246°
2026-05-03 21:20 38.96849 0.90283 37009 ft 373 kts 246°
2026-05-03 21:20 38.94534 0.84327 37008 ft 373 kts 246°
2026-05-03 21:21 38.92227 0.78406 37007 ft 371 kts 246°
2026-05-03 21:21 38.89910 0.72466 37003 ft 373 kts 246°
2026-05-03 21:22 38.87612 0.66549 37001 ft 372 kts 247°
2026-05-03 21:22 38.85623 0.60477 37000 ft 371 kts 251°
2026-05-03 21:23 38.83770 0.54305 36997 ft 372 kts 251°
2026-05-03 21:23 38.81800 0.48175 37000 ft 373 kts 246°
2026-05-03 21:24 38.79118 0.42480 37000 ft 374 kts 240°
2026-05-03 21:24 38.76200 0.36967 36931 ft 376 kts 240°
2026-05-03 21:25 38.74744 0.34219 37227 ft 376 kts 239°
2026-05-03 21:25 38.73274 0.31427 37005 ft 375 kts 240°
2026-05-03 21:25 38.70416 0.25967 37000 ft 370 kts 239°
2026-05-03 21:26 38.67556 0.20469 36991 ft 373 kts 240°
2026-05-03 21:26 38.64675 0.14933 36987 ft 372 kts 240°
2026-05-03 21:27 38.61829 0.09475 36985 ft 371 kts 240°
2026-05-03 21:27 38.58956 0.03969 36987 ft 372 kts 240°
2026-05-03 21:28 38.56102 -0.01492 36981 ft 372 kts 240°
2026-05-03 21:28 38.53237 -0.06962 36978 ft 372 kts 240°
2026-05-03 21:29 38.50371 -0.12429 36974 ft 371 kts 240°
2026-05-03 21:29 38.47504 -0.17888 36977 ft 372 kts 240°
2026-05-03 21:30 38.44621 -0.23367 36977 ft 371 kts 240°
2026-05-03 21:30 38.41758 -0.28798 36987 ft 371 kts 239°
2026-05-03 21:31 38.38888 -0.34233 36986 ft 370 kts 240°
2026-05-03 21:31 38.36019 -0.39660 36989 ft 371 kts 240°
2026-05-03 21:32 38.33497 -0.45300 36993 ft 367 kts 247°
2026-05-03 21:32 38.31448 -0.51259 36994 ft 368 kts 248°
2026-05-03 21:33 38.29383 -0.57217 36992 ft 368 kts 248°
2026-05-03 21:33 38.28334 -0.60156 36830 ft 366 kts 247°
2026-05-03 21:33 38.27263 -0.63113 36999 ft 368 kts 247°
2026-05-03 21:34 38.26175 -0.66089 37178 ft 374 kts 246°
2026-05-03 21:34 38.25081 -0.69064 36663 ft 370 kts 246°
2026-05-03 21:34 38.24008 -0.71965 37015 ft 366 kts 246°
2026-05-03 21:34 38.22926 -0.74882 36994 ft 365 kts 246°
2026-05-03 21:35 38.20752 -0.80731 36995 ft 367 kts 246°
2026-05-03 21:35 38.18571 -0.86593 36994 ft 367 kts 246°
2026-05-03 21:36 38.17497 -0.89472 36884 ft 364 kts 246°
2026-05-03 21:36 38.16409 -0.92385 36997 ft 368 kts 246°
2026-05-03 21:36 38.14202 -0.98289 36992 ft 370 kts 246°
2026-05-03 21:37 38.13104 -1.01223 37255 ft 370 kts 246°
2026-05-03 21:37 38.12052 -1.04031 36801 ft 366 kts 246°
2026-05-03 21:37 38.10963 -1.06932 36998 ft 364 kts 246°
2026-05-03 21:37 38.09861 -1.09868 37165 ft 371 kts 246°
2026-05-03 21:38 38.08760 -1.12800 36999 ft 367 kts 246°
2026-05-03 21:38 38.07669 -1.15696 37000 ft 362 kts 246°
2026-05-03 21:38 38.05569 -1.21270 37000 ft 368 kts 246°
2026-05-03 21:39 38.03326 -1.27220 37000 ft 377 kts 246°
2026-05-03 21:39 38.01060 -1.33210 37000 ft 378 kts 246°
2026-05-03 21:40 37.98794 -1.39185 36999 ft 378 kts 246°
2026-05-03 21:40 37.96511 -1.45195 37002 ft 378 kts 246°
2026-05-03 21:41 37.94246 -1.51151 37006 ft 379 kts 246°
2026-05-03 21:41 37.91956 -1.57158 37010 ft 378 kts 246°
2026-05-03 21:42 37.89671 -1.63140 37010 ft 379 kts 246°
2026-05-03 21:42 37.87373 -1.69149 37014 ft 379 kts 245°
2026-05-03 21:43 37.85074 -1.75147 37019 ft 379 kts 245°
2026-05-03 21:43 37.82775 -1.81128 37022 ft 379 kts 245°
2026-05-03 21:44 37.80484 -1.87080 37028 ft 380 kts 246°
2026-05-03 21:44 37.78169 -1.93084 37033 ft 381 kts 245°
2026-05-03 21:45 37.75856 -1.99069 37037 ft 379 kts 246°
2026-05-03 21:45 37.73546 -2.05037 37041 ft 380 kts 245°
2026-05-03 21:46 37.71232 -2.11001 37043 ft 380 kts 246°
2026-05-03 21:46 37.68912 -2.16970 37041 ft 379 kts 246°
2026-05-03 21:47 37.66586 -2.22950 37044 ft 379 kts 245°
2026-05-03 21:47 37.64262 -2.28906 37048 ft 378 kts 245°
2026-05-03 21:48 37.61935 -2.34857 37049 ft 379 kts 246°
2026-05-03 21:48 37.59611 -2.40793 37049 ft 378 kts 246°
2026-05-03 21:49 37.57284 -2.46726 37055 ft 379 kts 246°
2026-05-03 21:49 37.54951 -2.52663 37055 ft 379 kts 245°
2026-05-03 21:50 37.52616 -2.58592 37055 ft 379 kts 246°
2026-05-03 21:50 37.50276 -2.64519 37045 ft 381 kts 246°
2026-05-03 21:51 37.47915 -2.70489 37048 ft 380 kts 245°
2026-05-03 21:51 37.45567 -2.76424 37056 ft 379 kts 245°
2026-05-03 21:52 37.43206 -2.82369 37066 ft 380 kts 245°
2026-05-03 21:52 37.42438 -2.84302 37066 ft 380 kts 245°
2026-05-03 21:53 37.42342 -2.84543 37067 ft 380 kts 245°
2026-05-03 21:53 37.42247 -2.84783 37065 ft 380 kts 245°
2026-05-03 21:54 37.42151 -2.85024 37063 ft 380 kts 245°
2026-05-03 21:54 37.42056 -2.85265 37062 ft 380 kts 245°
2026-05-03 21:55 37.41428 -2.86843 37061 ft 380 kts 245°
2026-05-03 21:55 37.39080 -2.92734 37067 ft 373 kts 245°
2026-05-03 21:56 37.36800 -2.98448 37076 ft 366 kts 245°
2026-05-03 21:56 37.34505 -3.04195 37073 ft 369 kts 245°
2026-05-03 21:57 37.32209 -3.09929 37064 ft 367 kts 245°
2026-05-03 21:57 37.29911 -3.15663 37072 ft 368 kts 245°
2026-05-03 21:58 37.27966 -3.20502 37077 ft 369 kts 245°
2026-05-03 21:58 37.25650 -3.26256 37076 ft 367 kts 245°
2026-05-03 21:59 37.23373 -3.31959 37076 ft 367 kts 245°
2026-05-03 21:59 37.21122 -3.37696 37076 ft 368 kts 245°
2026-05-03 22:00 37.19247 -3.42476 37071 ft 367 kts 246°
2026-05-03 22:00 37.16612 -3.49162 37070 ft 367 kts 245°
2026-05-03 22:01 37.14359 -3.54863 37074 ft 366 kts 245°
2026-05-03 22:01 37.12099 -3.60562 37070 ft 366 kts 245°
2026-05-03 22:02 37.09835 -3.66260 37065 ft 367 kts 245°
2026-05-03 22:02 37.07554 -3.71996 37062 ft 367 kts 245°
2026-05-03 22:03 37.06605 -3.74952 36806 ft 362 kts 254°
2026-05-03 22:03 37.06225 -3.78008 35986 ft 362 kts 269°
2026-05-03 22:03 37.06646 -3.81123 34874 ft 370 kts 279°
2026-05-03 22:03 37.07420 -3.84186 33337 ft 381 kts 282°
2026-05-03 22:04 37.08283 -3.87328 31785 ft 388 kts 282°
2026-05-03 22:04 37.09114 -3.90509 30682 ft 383 kts 281°
2026-05-03 22:04 37.09877 -3.93608 29774 ft 375 kts 281°
2026-05-03 22:04 37.10587 -3.96679 28885 ft 366 kts 280°
2026-05-03 22:05 37.11245 -3.99678 28478 ft 350 kts 279°
2026-05-03 22:05 37.11863 -4.02620 28092 ft 358 kts 279°
2026-05-03 22:05 37.12484 -4.05708 27568 ft 369 kts 279°
2026-05-03 22:05 37.13099 -4.08798 27081 ft 366 kts 279°
2026-05-03 22:06 37.13710 -4.11866 26594 ft 361 kts 279°
2026-05-03 22:06 37.14310 -4.14888 26121 ft 356 kts 279°
2026-05-03 22:06 37.14900 -4.17876 25645 ft 352 kts 279°
2026-05-03 22:06 37.15484 -4.20862 25166 ft 358 kts 279°
2026-05-03 22:07 37.16075 -4.23902 24678 ft 362 kts 279°
2026-05-03 22:07 37.16475 -4.25954 24342 ft 360 kts 279°
2026-05-03 22:07 37.17257 -4.29950 23694 ft 354 kts 279°
2026-05-03 22:07 37.17835 -4.32902 23203 ft 350 kts 279°
2026-05-03 22:08 37.18408 -4.35836 22729 ft 345 kts 279°
2026-05-03 22:08 37.18979 -4.38767 22247 ft 346 kts 279°
2026-05-03 22:08 37.19354 -4.40707 21937 ft 350 kts 279°
2026-05-03 22:08 37.20114 -4.44643 21271 ft 349 kts 279°
2026-05-03 22:09 37.20684 -4.47587 20785 ft 345 kts 279°
2026-05-03 22:09 37.21244 -4.50476 20296 ft 341 kts 279°
2026-05-03 22:09 37.21803 -4.53364 19818 ft 337 kts 279°
2026-05-03 22:10 37.22888 -4.58991 18860 ft 333 kts 279°
2026-05-03 22:10 37.23426 -4.61811 18382 ft 338 kts 279°
2026-05-03 22:10 37.23967 -4.64652 17891 ft 335 kts 279°
2026-05-03 22:10 37.24333 -4.66564 17561 ft 333 kts 278°
2026-05-03 22:11 37.25047 -4.70293 16920 ft 328 kts 278°
2026-05-03 22:11 37.25396 -4.72119 16598 ft 326 kts 278°
2026-05-03 22:11 37.26094 -4.75776 15973 ft 322 kts 278°
2026-05-03 22:11 37.26611 -4.78491 15500 ft 319 kts 279°
2026-05-03 22:12 37.26954 -4.80290 15188 ft 317 kts 278°
2026-05-03 22:12 37.27626 -4.83832 14564 ft 313 kts 279°
2026-05-03 22:12 37.27959 -4.85601 14263 ft 312 kts 279°
2026-05-03 22:12 37.28627 -4.89149 13638 ft 316 kts 279°
2026-05-03 22:13 37.29127 -4.91803 13166 ft 313 kts 279°
2026-05-03 22:13 37.29623 -4.94425 12721 ft 310 kts 279°
2026-05-03 22:13 37.29956 -4.96181 12418 ft 308 kts 279°
2026-05-03 22:13 37.30606 -4.99631 11812 ft 305 kts 279°
2026-05-03 22:14 37.31094 -5.02229 11361 ft 304 kts 279°
2026-05-03 22:14 37.31417 -5.03960 11062 ft 309 kts 279°
2026-05-03 22:14 37.32066 -5.07419 10534 ft 304 kts 280°
2026-05-03 22:14 37.32545 -5.09959 10360 ft 292 kts 280°
2026-05-03 22:15 37.32852 -5.11585 10295 ft 283 kts 279°
2026-05-03 22:15 37.33291 -5.13918 10190 ft 270 kts 279°
2026-05-03 22:15 37.33714 -5.16183 10009 ft 262 kts 279°
2026-05-03 22:15 37.34259 -5.19129 9526 ft 261 kts 279°
2026-05-03 22:16 37.34668 -5.21337 9178 ft 259 kts 280°
2026-05-03 22:16 37.34942 -5.22811 8946 ft 259 kts 280°
2026-05-03 22:16 37.35344 -5.24971 8607 ft 257 kts 280°
2026-05-03 22:16 37.35886 -5.27882 8152 ft 256 kts 281°
2026-05-03 22:17 37.36154 -5.29327 7926 ft 256 kts 281°
2026-05-03 22:17 37.36703 -5.32295 7465 ft 262 kts 281°
2026-05-03 22:17 37.37111 -5.34497 7124 ft 261 kts 281°
2026-05-03 22:17 37.37521 -5.36708 6782 ft 260 kts 282°
2026-05-03 22:18 37.37794 -5.38178 6552 ft 259 kts 282°
2026-05-03 22:18 37.38200 -5.40373 6171 ft 260 kts 282°
2026-05-03 22:18 37.38746 -5.43319 5716 ft 256 kts 282°
2026-05-03 22:18 37.39013 -5.44767 5484 ft 253 kts 282°
2026-05-03 22:19 37.39402 -5.46886 5162 ft 250 kts 282°
2026-05-03 22:19 37.39920 -5.49704 4735 ft 245 kts 283°
2026-05-03 22:19 37.40173 -5.51082 4528 ft 242 kts 283°
2026-05-03 22:19 37.40523 -5.53000 4360 ft 232 kts 282°
2026-05-03 22:20 37.40860 -5.54911 4281 ft 218 kts 282°
2026-05-03 22:20 37.41260 -5.57308 4195 ft 201 kts 281°
2026-05-03 22:20 37.41441 -5.58425 4155 ft 193 kts 282°
2026-05-03 22:20 37.41702 -5.60039 4078 ft 183 kts 279°
2026-05-03 22:21 37.41822 -5.61665 3907 ft 192 kts 273°
2026-05-03 22:21 37.41843 -5.63344 3626 ft 192 kts 271°
2026-05-03 22:21 37.41840 -5.64994 3397 ft 186 kts 271°
2026-05-03 22:21 37.41838 -5.66593 3247 ft 177 kts 270°
2026-05-03 22:22 37.41837 -5.68115 3142 ft 169 kts 270°
2026-05-03 22:22 37.41836 -5.69573 2959 ft 163 kts 270°
2026-05-03 22:22 37.41834 -5.70962 2700 ft 159 kts 270°
2026-05-03 22:22 37.41832 -5.72289 2472 ft 145 kts 270°
2026-05-03 22:23 37.41830 -5.73551 2300 ft 144 kts 270°
2026-05-03 22:23 37.41828 -5.74748 2104 ft 144 kts 270°
2026-05-03 22:23 37.41826 -5.76012 1910 ft 144 kts 270°
2026-05-03 22:23 37.41822 -5.77678 1649 ft 144 kts 270°
2026-05-03 22:24 37.41821 -5.78517 1517 ft 144 kts 270°
2026-05-03 22:24 37.41819 -5.79782 1324 ft 143 kts 270°
2026-05-03 22:24 37.41816 -5.81022 1135 ft 143 kts 270°
2026-05-03 22:24 37.41817 -5.82692 828 ft 143 kts 270°
2026-05-03 22:25 37.41828 -5.83925 642 ft 139 kts 269°
2026-05-03 22:25 37.41824 -5.84732 506 ft 138 kts 266°
2026-05-03 22:25 37.41801 -5.85905 383 ft 131 kts 268°
2026-05-03 22:25 37.41794 -5.87088 228 ft 139 kts 268°
2026-05-03 22:26 37.41792 -5.88277 97 ft 126 kts 268°
2026-05-03 22:26 37.41790 -5.89140 94 ft 68 kts 270°
2026-05-03 22:26 37.41793 -5.89644 88 ft 39 kts 271°
2026-05-03 22:26 37.41873 -5.89815 87 ft 20 kts 337°
2026-05-03 22:27 37.41953 -5.89857 90 ft 8 kts 337°
2026-05-03 22:27 37.42010 -5.89888 91 ft 9 kts 336°
2026-05-03 22:27 37.42050 -5.89937 91 ft 8 kts 282°
2026-05-03 22:27 37.42056 -5.90045 91 ft 5 kts 300°
2026-05-03 22:28 37.42079 -5.90058 91 ft 7 kts 349°
2026-05-03 22:28 37.42121 -5.90064 92 ft 0 kts 354°